Showing default

SPACEEYE-T1, 63229

Orbit data source: Space-Track

SPACEEYE-T1, 63229 is a payload satellite owned by SatRec Initiative (KR) in SSO that was launched on Sat, 15 Mar 2025 UTC via an FALCON 9 launch vehicle from the Air Force Western Test Range (AFWTR). Payload-class satellites include a variety of spacecraft equipped with specific instruments for various scientific and technological missions. These include communications satellites like Starlink; space stations such as the ISS; scientific satellites like the Hubble; Earth observation satellites from companies like Planet Labs, Umbra, and HawkEye 360; GPS; miniature CubeSats for education and research; and military/defense satellites.

Loading next visibility...
Identifier
63229, 2025-052V
Orbit
SSO
Country
Flag of KRKR / SKOR
Related business
Manufacturer
SatRec Initiative
Mission
Operational Commercial Imaging
Bus & Motor
SPACEEYE-T, Unknown motor
Mass
700 kg wet, 700 kg dry
Launch date (UTC)
2025-03-15 (1 year ago)
Launch vehicle
FALCON 9
Launch site
Air Force Western Test Range (AFWTR)
Object type
Payload
Rocket body
Debris
Shape & HBR
Cyl + 2 Pan, 2.7 m
Radar Cross Section
7.637 m², Large (>1 m²)

Expand to show TLE details & history
Last TLE update: 16 hours ago

TLE from 16 hours ago
0 SPACEEYE-T1
1 63229U 25052V   26192.71013942  .00002911  00000-0  12788-3 0  9995
2 63229  97.3926  84.8620 0006522  72.6994 287.4955 15.22695584 73579
Epoch: 2026-07-11T17:02Z
TLE epoch observation values (Epoch: 2026-07-11T17:02:36.045Z)
Latitude
-0.00012°
Longitude
-100.40763°
Altitude
499.462 km
Speed
7.615 km/s
True Right ascension
05h 39m 26s
True Declination
0° 00' 00"
Sunlit
Object was in daylight at epoch
Visualization orbit readout
Latitude
Unknown
Longitude
Unknown
Altitude
Unknown
Speed
Unknown
Apparent Right ascension
Unknown
Apparent Declination
Unknown
Sunlit
N/A
Visualization observer readout
Local Sidereal Time
21:50:29
Azimuth
Unknown
Elevation
Unknown
Doppler factor
Unknown
Orbital elements
Apogee altitude
499.158 km
Perigee altitude
490.193 km
Semi-major axis
6,872.813 km
Eccentricity
0.00065
Inclination
97.3926°
RAAN
84.862°
Arg. of periapsis
72.6994°
True anomaly
287.4242°
Mean anomaly
287.4955°
Eccentric anomaly
287.45985°
Mean motion
3.80927 °/min
Orbital period
94.51 mins
BSTAR
0.00012788
Loading maneuver chart data...
Computing Atmospheric mass density...
Loading historical data...
Loading historical data...
Loading historical data...
Loading historical data...
Loading historical data...
Loading historical data...
Loading historical data...

Documentation

Showing up to 5 results
|